Location: Casco Volunteer Fire Department
(44.5576°N, 87.6146°W)
Time: 05:17:45
(UTC+00:00)

Cosmos 1340 Rocket - Pass Details

Date: 22 January 2026
Orbit: 486 x 516 km, 81.2° (Epoch: 7 February)

Event Time Altitude Azimuth Distance (km) Brightness Sun altitude
Rises 23:17:10 0° 349° (N) 2,638 6.2 -5.9°
Reaches altitude 10° 23:19:19 10° 350° (N) 1,749 5.3 -6.3°
Maximum altitude 23:23:10 89° 80° (E) 523 2.7 -6.9°
Drops below altitude 10° 23:27:00 10° 171° (S) 1,740 5.5 -7.6°
Sets 23:29:07 0° 171° (S) 2,623 6.4 -7.9°
